[[{"header":{"parameterUnit":"m.s-1","parameterCategory":1,"la1":30.2992,"la2":30.254,"lo1":-89.0895,"lo2":-89.0443,"dy":0.0025,"dx":0.0025,"nx":19,"ny":19,"refTime":"2026-04-26T03:00:00:Z","depth":0,"parameterNumber":2,"parameterNumberName":"U-component_of_WINDS"},"data":[0,0,0,-2.1809,-2.1808,-2.175,-2.175,-2.1684,-2.1683,0,0,0,0,0,0,0,0,0,0,0,-2.1832,-2.1832,-2.1809,-2.1808,-2.175,-2.175,-2.1684,-2.1683,0,0,0,0,0,0,0,0,0,0,0,-2.1832,-2.1832,-2.1832,-2.1807,-2.1751,-2.175,-2.1684,-2.1724,0,0,0,0,0,0,0,0,0,0,-2.1778,-2.1807,-2.1832,-2.1832,-2.1807,-2.1751,-2.175,-2.1726,-2.1722,-2.1714,0,-2.171,0,-2.1696,-2.168,-2.1679,0,0,0,-2.1802,-2.181,-2.1789,-2.1832,-2.1807,-2.1751,-2.1775,-2.1724,-2.1719,-2.1708,-2.1709,-2.1706,-2.1695,-2.1679,-2.1679,-2.1655,-2.1655,0,0,-2.1805,-2.1824,-2.1793,-2.1787,-2.1799,-2.1777,-2.1773,-2.172,-2.1722,-2.1709,-2.1704,-2.1694,-2.1679,-2.1679,-2.1655,-2.1655,0,0,0,-2.1818,-2.1827,-2.1807,-2.179,-2.1779,-2.1775,-2.1771,-2.1724,-2.1716,-2.1704,-2.1693,-2.1679,-2.1678,-2.1655,-2.1655,-2.1681,0,0,0,-2.182,-2.1834,-2.1809,-2.182,-2.178,-2.1751,-2.1776,-2.172,-2.1713,-2.1693,-2.1679,-2.1677,-2.1655,-2.1655,-2.168,-2.1689,0,0,0,-2.1833,-2.1836,-2.183,-2.1821,-2.1798,-2.1752,-2.1741,-2.1718,-2.1707,-2.1679,-2.1677,-2.1654,-2.1655,-2.1679,-2.1688,-2.1688,0,0,0,-2.1853,-2.1853,-2.1831,-2.1827,-2.1798,-2.177,-2.1741,-2.1718,-2.1697,-2.1678,-2.1655,-2.1655,-2.1679,-2.1687,-2.1688,-2.1692,-2.1696,0,0,-2.1864,-2.1855,-2.1851,-2.1829,-2.181,-2.1777,-2.176,-2.1722,-2.17,-2.1671,-2.167,-2.168,-2.1688,-2.1688,-2.1714,-2.1717,0,0,0,-2.1861,-2.1858,-2.1849,-2.1831,-2.1804,-2.178,-2.1743,-2.1729,-2.1704,-2.169,-2.1681,-2.1685,-2.1684,-2.1685,-2.1688,-2.1686,-2.1657,-2.1657,-2.1657,-2.1902,-2.1877,-2.1868,-2.1836,-2.182,-2.1782,-2.1766,-2.174,-2.1717,-2.1716,-2.1706,-2.1725,-2.1727,-2.1729,-2.1727,-2.1708,-2.1708,-2.1708,-2.1708,-2.1914,-2.1905,-2.1878,-2.186,-2.1833,-2.1816,-2.178,-2.1765,-2.1745,-2.173,-2.1728,-2.1713,-2.1734,-2.1731,-2.171,-2.1709,-2.1709,-2.1709,-2.1709,-2.1937,-2.1928,-2.1913,-2.1886,-2.1867,-2.1834,-2.1817,-2.1792,-2.1768,-2.1767,-2.1754,-2.1753,-2.1748,-2.1763,-2.1763,-2.1763,-2.1763,-2.1763,-2.1763,-2.1966,-2.1948,-2.1937,-2.1909,-2.1895,-2.1873,-2.1836,-2.1821,-2.1797,-2.178,-2.178,-2.1757,-2.1742,-2.1737,-2.1764,-2.1764,-2.1764,-2.1764,-2.1764,-2.1985,-2.1977,-2.196,-2.1947,-2.1911,-2.1894,-2.1864,-2.1835,-2.1819,-2.1811,-2.1789,-2.1782,-2.177,-2.1768,-2.1764,-2.1796,-2.1796,-2.1796,-2.1796,-2.2003,-2.1996,-2.1974,-2.1953,-2.193,-2.1901,-2.1881,-2.1853,-2.1821,-2.1809,-2.1802,-2.1795,-2.1794,-2.1783,-2.178,-2.1776,-2.181,-2.181,-2.181,-2.2013,-2.2003,-2.1991,-2.1963,-2.1934,-2.1909,-2.1889,-2.1865,-2.1828,-2.181,-2.1799,-2.1799,-2.1788,-2.1786,-2.1766,-2.1762,-2.1754,0,0]},{"header":{"parameterUnit":"m.s-1","parameterCategory":1,"la1":30.2992,"la2":30.254,"lo1":-89.0895,"lo2":-89.0443,"dy":0.0025,"dx":0.0025,"nx":19,"ny":19,"refTime":"2026-04-26T03:00:00:Z","depth":0,"parameterNumber":3,"parameterNumberName":"V-component_of_WINDS"},"data":[0,0,0,3.2188,3.2192,3.2384,3.2385,3.2607,3.2609,0,0,0,0,0,0,0,0,0,0,0,3.2122,3.2123,3.2188,3.2193,3.2384,3.2385,3.2607,3.2609,0,0,0,0,0,0,0,0,0,0,0,3.2122,3.2123,3.2125,3.2193,3.2384,3.2385,3.2606,3.2469,0,0,0,0,0,0,0,0,0,0,3.2286,3.2217,3.2123,3.2125,3.2194,3.2384,3.2385,3.2463,3.2477,3.2512,0,3.2544,0,3.2581,3.2623,3.2624,0,0,0,3.2198,3.2204,3.2265,3.2125,3.2196,3.2384,3.2299,3.2471,3.2488,3.2531,3.2548,3.2556,3.2584,3.2624,3.2625,3.2817,3.2818,0,0,3.2188,3.215,3.2254,3.2276,3.225,3.2293,3.2305,3.2482,3.2495,3.2549,3.2562,3.2588,3.2626,3.2627,3.2817,3.2817,0,0,0,3.2153,3.2142,3.22,3.2266,3.2303,3.2299,3.2313,3.2487,3.2509,3.2564,3.2591,3.2627,3.2629,3.2816,3.2817,3.2814,0,0,0,3.2147,3.2123,3.2195,3.2173,3.2299,3.2398,3.2313,3.2497,3.2518,3.2589,3.2627,3.2631,3.2815,3.2816,3.2813,3.2818,0,0,0,3.2113,3.2119,3.2144,3.2171,3.2253,3.2396,3.2429,3.2502,3.2533,3.2624,3.2632,3.2815,3.2816,3.2812,3.2816,3.2859,0,0,0,3.2063,3.2135,3.2143,3.2234,3.2251,3.2395,3.2428,3.2535,3.2613,3.2628,3.2815,3.2817,3.2811,3.2815,3.2857,3.2888,3.2897,0,0,3.2133,3.2142,3.2199,3.2211,3.2345,3.2368,3.25,3.2603,3.2643,3.2755,3.2761,3.2813,3.2816,3.2858,3.2964,3.2971,0,0,0,3.2208,3.2248,3.2291,3.2366,3.245,3.2522,3.261,3.2648,3.2747,3.2695,3.2841,3.2844,3.287,3.2886,3.2892,3.2917,3.2823,3.2823,3.2822,3.2251,3.2304,3.24,3.2475,3.2546,3.2638,3.27,3.2766,3.2794,3.2828,3.2861,3.292,3.2937,3.2942,3.2968,3.2882,3.2882,3.2882,3.2882,3.2358,3.2423,3.2463,3.2571,3.2624,3.2713,3.2803,3.282,3.2909,3.2898,3.2924,3.2907,3.2949,3.2974,3.2882,3.2882,3.2882,3.2882,3.2882,3.2393,3.2433,3.2482,3.2596,3.2677,3.2749,3.2834,3.2878,3.2919,3.2944,3.2985,3.2985,3.299,3.2961,3.2961,3.2961,3.2961,3.2962,3.2962,3.2409,3.2464,3.2533,3.263,3.2685,3.2761,3.2855,3.2908,3.2977,3.3002,3.3003,3.3026,3.2945,3.2923,3.2965,3.2964,3.2964,3.2964,3.2963,3.2497,3.2485,3.2591,3.2646,3.2764,3.2842,3.2898,3.3003,3.3052,3.3092,3.3112,3.3045,3.3055,3.3051,3.3033,3.3101,3.3101,3.3101,3.3101,3.2526,3.2538,3.2657,3.2742,3.283,3.2893,3.3007,3.308,3.3152,3.3186,3.3182,3.3163,3.3156,3.3171,3.3164,3.3148,3.3244,3.3244,3.3244,3.2584,3.2606,3.2698,3.2774,3.2869,3.2949,3.3059,3.3151,3.323,3.3251,3.3213,3.3207,3.3176,3.3163,3.3182,3.317,3.3142,0,0]}]]